Theta_e
346 346 346 345 345 346 350 352 351 352 351 351 351 351 352 351 350 350 349 349 347 346 345 346 347 346 349 347 347 348 347 347 346 345 345 345 345 346 346 346 346 346 345 345 344 345 344 346 345 345 344 342 338 330 330 330 330 332 330 331 332 330
344 345 347 347 346 347 349 349 347 348 348 349 350 351 349 347 350 346 349 347 344 346 343 343 345 349 345 347 347 347 347 346 346 345 345 344 344 345 345 346 346 346 345 345 345 331 334 342 344 343 343 341 332 330 330 330 330 330 330 329 332 334
342 344 345 346 346 346 346 344 345 346 347 349 349 348 346 347 345 344 344 344 344 342 342 343 344 346 346 348 346 347 346 346 346 345 344 343 343 344 344 344 345 345 345 344 335 330 332 331 334 340 339 333 330 330 330 330 330 330 330 332 329 336
341 342 344 344 345 344 343 344 344 345 345 345 346 346 345 345 344 343 343 343 342 342 341 341 349 349 348 345 344 346 346 345 345 344 344 343 343 343 343 343 343 344 341 339 331 331 334 333 331 330 330 331 331 331 330 329 329 329 330 333 332 336
339 340 341 344 344 342 343 344 343 342 344 345 344 344 344 344 343 343 342 342 341 342 340 341 341 342 341 342 340 340 341 339 337 335 342 333 333 337 335 331 332 334 328 330 331 330 332 332 331 330 330 331 331 331 330 330 330 329 329 332 334 337
339 339 340 340 341 344 343 342 343 343 344 344 344 343 342 342 342 342 342 342 342 340 339 339 338 339 340 340 338 335 335 336 334 334 335 331 329 330 326 329 329 329 327 327 329 329 330 335 330 329 331 332 332 331 330 329 330 329 330 333 336 337
338 338 339 340 341 342 340 340 343 344 343 342 341 339 338 339 341 342 342 342 340 339 338 337 337 338 338 338 337 335 335 335 334 333 333 330 328 328 326 327 325 325 324 327 328 328 330 337 331 330 332 333 332 331 330 329 329 330 330 333 338 338
338 338 338 339 339 338 338 339 341 345 342 342 339 337 337 337 340 341 341 341 341 339 338 337 337 337 337 337 336 336 335 334 333 332 332 330 328 327 325 325 326 325 327 327 328 328 331 335 329 331 333 333 332 330 329 329 330 331 332 333 334 336
338 338 338 338 338 336 335 337 339 339 338 343 336 336 335 337 339 340 341 341 340 338 338 338 337 337 337 336 336 335 334 333 333 332 330 328 328 327 325 325 326 326 326 326 326 329 332 330 328 330 332 333 332 331 330 330 330 332 333 333 332 334
337 338 337 337 335 334 334 334 335 336 337 339 335 336 337 336 337 340 340 340 340 338 338 338 337 337 337 335 335 335 334 333 333 332 329 328 328 327 326 325 326 328 328 326 327 330 330 329 331 331 331 333 333 332 331 331 332 333 333 332 332 333
338 339 337 335 334 333 333 332 334 334 336 336 336 338 337 335 336 337 338 337 338 339 338 338 337 337 336 335 334 332 332 330 331 330 330 328 330 329 326 327 329 327 326 326 326 328 330 331 331 332 332 333 333 333 333 333 333 333 333 331 330 330
337 337 336 335 336 335 334 334 333 335 335 335 337 336 338 336 334 334 336 335 337 337 338 337 337 336 335 333 331 331 330 331 330 329 330 328 329 330 329 330 334 331 328 327 328 328 330 330 329 330 332 333 334 333 333 333 333 333 332 331 330 331
336 335 335 334 334 335 336 335 334 336 337 338 338 338 337 335 333 334 334 334 336 337 336 336 336 336 336 332 331 330 330 331 330 331 332 332 332 331 334 335 332 330 329 329 329 329 331 328 328 329 331 332 333 334 334 333 333 333 331 330 329 329
335 334 334 334 334 334 334 335 337 334 338 338 338 337 336 334 335 334 335 336 336 336 335 335 335 334 333 332 331 331 331 331 331 331 331 332 332 332 333 331 329 331 334 329 328 328 328 329 330 331 331 332 333 333 333 332 332 331 330 330 329 330
335 334 336 335 334 334 334 334 333 332 336 337 337 335 335 335 334 335 335 336 336 336 335 335 334 333 332 332 331 330 330 330 332 332 331 330 333 332 331 329 328 328 327 328 329 330 329 329 330 331 331 331 333 333 332 332 331 330 329 328 330 328
335 334 335 335 334 335 333 333 332 335 333 335 335 335 336 335 334 334 336 336 335 336 335 334 333 333 332 332 331 330 331 332 333 332 333 334 334 331 329 328 329 329 326 328 329 327 326 329 330 331 331 331 331 332 331 331 330 329 329 329 329 327
334 333 334 334 332 331 332 331 331 333 333 333 334 334 335 335 335 335 337 336 335 336 335 335 334 333 332 331 331 331 332 333 334 333 333 331 331 330 330 329 328 330 328 327 328 327 325 329 330 331 330 330 330 331 330 330 329 329 330 328 327 326
334 333 333 332 331 331 332 332 331 331 333 332 334 335 335 335 335 336 337 336 336 336 335 335 334 333 332 332 333 333 334 334 333 332 332 331 330 330 329 329 327 328 329 329 326 326 325 330 331 330 329 329 329 330 330 330 330 332 329 328 326 326
332 333 331 331 330 331 331 332 331 330 331 332 333 334 335 335 335 336 337 337 337 336 336 335 335 334 333 334 334 334 334 332 332 332 331 330 330 329 329 329 328 328 330 328 328 327 327 329 328 328 329 330 330 330 329 330 330 330 328 327 328 329
333 334 331 330 330 329 329 329 328 329 330 331 332 333 333 334 335 336 337 337 336 335 335 335 334 334 334 335 334 332 331 331 331 331 329 329 329 329 329 329 328 328 328 329 329 329 329 327 325 326 327 328 329 328 328 329 328 329 329 327 328 327
333 332 330 329 329 329 328 327 327 328 326 328 330 331 333 333 335 336 337 337 336 335 335 335 335 335 334 337 333 331 330 330 331 330 329 329 330 330 330 329 328 329 327 325 325 328 328 327 326 324 326 326 327 330 331 330 329 329 328 328 328 329
331 332 331 329 329 329 328 327 326 327 327 329 329 330 332 334 334 336 336 336 336 335 335 335 336 335 335 334 332 331 330 330 330 329 330 331 330 331 330 329 328 326 327 325 324 328 328 326 320 322 321 321 324 326 329 327 327 328 329 329 329 329
331 332 332 332 329 329 330 330 329 329 329 328 330 330 331 334 335 335 335 336 335 334 334 335 335 337 334 334 333 331 330 330 330 331 330 329 328 328 328 328 327 325 324 325 326 329 327 323 319 321 323 321 319 318 322 325 328 328 328 329 329 328
331 331 332 332 331 330 330 329 329 330 330 328 327 331 331 333 333 333 334 336 336 334 334 334 336 337 335 334 333 331 330 331 330 330 329 328 327 327 328 327 326 326 326 322 324 326 328 326 324 322 315 313 317 317 315 318 321 325 329 329 328 327
331 330 331 332 331 330 330 326 326 329 331 330 331 331 330 330 331 332 333 333 333 333 335 335 337 337 335 333 332 331 331 331 330 329 329 328 327 328 328 328 327 326 325 324 323 325 326 327 326 325 320 316 314 312 312 317 321 321 326 326 327 327
331 331 330 331 330 330 329 326 326 326 326 327 326 327 327 328 329 329 331 333 333 334 335 336 337 337 335 333 331 331 331 330 330 329 329 328 327 328 328 328 328 326 326 327 327 325 324 326 327 327 322 319 319 312 313 319 319 313 324 325 326 328
331 331 331 330 329 330 327 327 327 327 327 327 326 328 328 330 331 331 332 331 332 333 335 335 335 335 334 333 332 332 331 330 331 330 330 328 328 328 328 328 329 328 327 327 327 325 324 323 324 326 326 324 325 320 322 319 314 318 315 321 324 324
330 331 332 330 329 330 328 328 328 327 326 325 327 328 328 329 331 331 331 331 331 331 332 333 332 333 333 333 332 331 331 331 331 331 331 329 329 329 329 329 330 330 328 328 327 326 323 324 323 322 323 321 321 322 322 317 319 318 317 315 318 323
330 330 331 330 329 329 329 328 327 327 325 327 326 326 328 329 330 332 329 329 330 331 330 331 331 331 332 332 332 331 330 330 331 331 332 331 329 329 329 329 328 328 327 327 328 327 326 324 322 322 321 318 320 320 319 318 320 318 318 317 317 319
331 331 331 330 330 330 329 326 325 325 325 325 325 326 329 329 329 330 330 329 328 330 329 328 329 330 331 331 331 331 331 331 330 330 331 331 330 329 329 329 329 328 328 327 326 327 327 325 324 323 323 321 319 317 317 317 316 316 318 317 317 317
332 333 333 331 330 328 326 326 326 326 325 325 325 326 328 328 328 328 328 327 327 327 327 326 327 328 330 331 330 331 331 331 330 331 331 330 329 330 329 329 328 328 328 327 326 325 324 324 324 324 322 322 322 321 320 316 317 317 316 313 318 318
326 326 330 332 329 326 327 327 327 327 326 326 326 327 326 327 327 327 327 326 326 325 325 325 325 326 327 329 329 329 330 329 329 329 330 330 330 331 330 330 329 328 327 327 327 326 324 323 322 323 323 321 320 319 316 318 319 319 318 317 319 318
321 323 326 329 328 325 326 327 326 326 327 327 327 326 326 326 326 326 325 325 325 324 322 324 324 326 326 328 328 327 328 327 326 328 329 329 329 331 330 330 329 328 327 326 326 326 324 323 323 324 323 321 321 320 319 319 321 320 318 320 320 318
321 323 328 328 327 325 326 327 327 327 327 328 327 327 326 325 324 324 325 324 324 324 324 324 325 326 327 328 328 328 328 328 327 326 327 328 328 329 329 329 328 327 327 326 325 325 324 323 323 323 322 321 320 321 319 322 322 321 320 319 318 318
326 325 328 324 324 325 325 326 326 325 326 326 326 327 327 327 325 324 324 324 324 324 324 325 327 327 327 328 327 326 326 326 326 325 326 326 328 327 327 328 327 327 327 325 326 325 323 323 324 321 320 321 321 320 322 322 322 322 322 322 320 319
324 325 323 321 322 322 324 325 325 324 325 325 325 327 327 327 326 325 325 324 324 324 325 325 325 326 327 327 325 324 324 324 324 324 324 325 325 324 324 324 323 324 325 328 326 325 323 324 323 323 322 320 322 322 323 323 323 322 322 323 322 321
324 324 322 322 322 323 324 323 324 325 325 324 324 325 326 326 325 325 325 324 324 325 324 324 325 325 325 324 324 323 321 321 322 322 322 324 324 324 324 324 324 323 324 324 325 325 323 324 323 322 322 323 323 323 322 321 322 322 322 322 322 321
Wind_Speed
5 5 4 3 3 4 7 11 10 11 13 13 13 13 13 14 13 13 13 13 11 7 7 7 9 8 13 8 10 12 12 11 10 9 8 9 9 8 7 6 6 5 4 5 3 3 3 6 7 7 11 12 14 7 6 6 6 5 4 5 5 5
5 5 5 4 3 3 5 8 6 6 7 10 12 11 10 8 8 6 11 9 5 5 6 6 7 9 6 9 10 12 11 10 9 9 8 8 8 8 6 6 5 5 4 2 2 1 3 6 8 9 11 14 7 5 5 6 5 5 5 4 3 7
5 5 6 5 3 3 4 3 4 5 6 8 9 8 6 8 5 6 6 6 5 4 5 6 6 8 7 11 9 11 11 10 9 9 8 8 8 7 6 5 5 4 3 1 1 2 4 4 5 11 10 7 6 5 5 4 4 5 6 4 3 10
6 6 6 4 4 4 4 4 4 4 5 5 5 5 5 6 6 6 6 5 6 5 4 5 12 16 12 7 7 9 11 10 9 8 9 6 7 7 6 4 3 3 3 3 1 2 2 4 4 7 7 6 6 6 5 5 4 3 4 5 6 12
5 5 5 5 4 4 4 4 4 4 5 4 4 5 5 6 6 6 6 5 6 6 5 5 4 5 5 6 5 5 5 4 3 3 5 4 3 4 4 2 1 1 2 1 2 2 1 2 1 6 6 7 7 5 5 4 5 3 2 4 6 12
5 5 6 6 6 6 6 5 5 5 5 4 5 6 5 5 5 6 5 5 6 7 5 4 4 6 6 6 6 5 5 5 4 3 3 4 4 3 3 2 2 0 0 0 2 3 2 1 1 5 5 6 7 6 5 5 4 4 3 3 6 13
6 5 6 6 6 5 5 5 5 5 5 5 4 5 4 4 5 5 5 4 6 7 6 5 5 6 6 5 6 5 5 5 5 4 3 4 3 3 3 3 2 2 2 1 2 2 3 1 2 5 5 6 6 6 5 5 5 4 3 4 7 12
5 6 5 5 5 5 4 5 5 6 4 5 5 5 5 5 5 5 5 4 4 5 6 6 6 6 6 5 6 5 5 4 4 4 3 3 3 2 2 2 1 1 1 1 1 2 4 3 3 4 7 6 6 6 5 5 5 4 4 5 5 10
5 5 5 4 4 2 2 3 4 5 5 5 4 4 4 4 5 4 5 6 5 6 6 6 6 6 6 6 5 5 5 4 4 4 4 3 3 3 2 2 2 1 1 1 2 1 2 5 3 4 6 6 6 6 5 5 5 4 4 5 5 7
4 4 4 4 4 3 1 3 3 4 4 4 3 3 2 2 4 5 5 5 6 6 7 7 7 6 7 6 5 4 4 4 4 4 4 5 4 4 4 3 2 1 1 1 3 1 3 5 4 4 5 6 6 6 6 6 5 5 4 5 5 6
4 4 5 5 4 4 3 3 3 2 2 3 3 4 4 1 0 3 5 4 6 6 6 6 7 7 5 6 5 5 4 2 3 4 4 5 3 4 3 5 4 3 2 5 3 2 2 5 5 5 3 5 6 6 6 5 5 5 4 5 4 4
5 5 5 4 4 5 6 2 2 2 2 3 4 4 5 5 2 1 1 3 4 5 5 5 6 5 5 6 5 5 4 4 3 3 4 3 4 4 4 2 4 3 4 5 5 4 4 5 5 4 4 5 5 6 5 5 5 5 4 4 4 4
5 5 6 6 3 4 4 5 3 3 4 1 2 3 4 7 7 4 2 2 3 5 5 6 6 6 5 5 5 6 4 4 4 4 4 3 3 3 4 5 5 3 5 5 6 5 4 4 5 4 4 4 5 5 5 5 5 5 4 4 4 4
7 7 6 4 6 4 4 4 4 1 1 3 2 2 2 3 5 5 5 4 4 4 5 5 6 5 5 5 5 6 5 4 4 4 5 5 5 6 7 7 5 4 5 6 5 4 5 5 4 4 4 4 5 5 5 5 5 4 4 4 4 4
9 9 9 8 9 5 7 2 5 4 1 1 2 4 1 2 2 4 4 4 5 4 5 5 6 7 6 6 6 5 4 4 3 3 5 2 5 5 6 7 4 5 5 5 5 3 3 4 5 5 4 4 5 5 4 5 4 4 4 3 4 3
10 12 9 9 8 7 7 5 5 5 3 4 5 5 3 4 3 2 3 5 4 5 5 5 5 6 6 6 6 6 5 3 3 4 4 4 6 6 5 7 5 5 6 4 5 3 3 4 4 6 5 4 4 4 5 5 5 4 4 4 4 3
13 12 6 8 9 8 7 10 6 6 6 7 8 7 5 4 4 4 4 5 5 5 5 5 5 5 6 6 5 6 4 4 3 4 4 5 6 5 5 5 5 3 5 5 4 4 3 4 5 5 5 5 4 4 4 4 4 4 4 4 3 3
8 5 6 9 8 8 8 6 6 8 8 6 7 7 7 7 6 5 5 5 6 5 5 5 5 5 5 4 5 6 4 4 4 3 5 7 6 3 4 6 5 4 5 6 5 5 3 3 4 5 5 4 4 4 4 4 3 3 4 4 3 3
7 9 9 11 11 10 8 4 4 7 6 4 3 3 4 5 6 5 5 6 5 5 5 5 5 5 5 5 4 5 5 4 4 4 6 8 6 4 3 4 7 5 4 4 7 8 3 2 5 5 5 4 4 4 4 4 3 3 2 2 3 2
9 10 11 8 7 5 4 6 7 5 6 6 5 5 5 5 5 5 5 6 5 4 4 5 5 5 5 5 5 5 5 4 5 5 6 8 7 6 6 7 7 8 7 4 3 6 5 6 3 5 5 6 4 4 3 4 3 2 3 2 2 2
10 11 10 9 6 7 6 6 3 5 4 2 5 5 6 5 4 3 5 6 6 6 5 5 5 6 6 5 5 5 5 4 4 4 5 6 7 6 6 6 7 6 8 6 2 4 4 4 6 4 5 5 5 4 4 4 3 1 2 2 3 3
9 10 10 10 9 7 5 6 7 7 4 4 5 5 5 4 4 4 5 5 6 6 7 6 6 6 6 6 6 5 5 5 5 5 4 5 6 7 6 6 7 7 2 7 6 5 6 6 2 4 6 3 3 4 4 4 3 2 3 2 2 3
9 10 9 10 10 8 7 6 4 3 4 2 1 2 2 3 4 5 5 5 5 6 6 6 6 6 7 6 6 6 5 5 5 5 6 5 6 6 6 7 7 8 6 1 3 4 7 3 5 4 3 5 2 2 1 2 1 2 2 2 2 2
10 10 10 9 9 10 10 5 3 5 2 2 2 3 2 3 4 3 4 4 5 3 6 6 6 6 5 6 6 6 5 5 5 5 6 7 6 7 6 6 6 6 8 6 3 3 3 4 5 10 4 2 2 2 3 1 2 2 1 3 2 2
10 11 10 10 9 8 6 2 2 4 4 3 3 3 3 3 4 4 4 5 5 6 5 6 6 6 6 6 6 6 6 6 5 4 5 6 6 7 7 7 7 7 7 8 7 5 8 5 6 2 6 5 2 1 3 2 3 2 1 3 1 2
9 10 10 10 9 8 6 6 5 5 5 4 4 7 8 8 6 7 6 4 4 6 5 5 6 6 5 5 6 6 6 6 5 4 5 5 5 5 6 6 6 7 6 4 9 8 7 4 6 4 3 2 5 5 6 5 3 3 0 1 1 0
8 9 11 10 10 8 7 6 6 6 5 6 6 4 3 4 5 3 3 4 4 4 4 6 6 6 5 5 5 5 5 5 5 4 4 5 6 6 6 6 6 6 6 5 5 8 8 6 3 5 3 1 0 2 8 9 4 4 3 1 1 2
5 7 8 10 10 9 9 7 7 5 3 3 6 5 4 4 4 4 4 4 4 4 4 5 6 6 6 5 5 5 5 5 5 5 4 5 6 5 5 4 6 6 6 6 6 7 7 7 9 4 0 1 2 5 7 3 4 4 6 6 3 2
5 5 6 10 10 9 8 7 4 4 2 2 2 1 3 4 4 4 4 3 4 3 3 4 3 4 5 6 5 6 5 5 5 5 5 5 4 5 6 6 6 6 7 7 7 6 7 7 5 5 3 1 3 4 3 2 4 1 3 5 3 3
3 3 4 7 8 9 7 6 5 3 6 1 3 1 3 4 4 4 5 5 3 3 4 5 5 3 5 5 5 5 5 6 5 5 5 5 4 5 6 6 7 6 6 6 4 6 7 6 5 4 4 5 3 3 3 3 1 3 3 1 5 6
2 3 5 4 7 9 9 8 5 6 8 7 4 4 4 5 5 5 5 5 5 3 3 5 6 5 4 4 5 5 5 5 5 4 4 5 6 6 6 6 5 6 6 7 6 5 5 5 5 5 4 5 7 9 8 6 7 5 4 3 5 4
6 9 6 5 5 7 8 7 7 8 9 8 8 4 4 6 7 6 6 6 5 4 3 4 3 4 4 4 5 5 4 4 5 5 5 5 6 6 5 5 5 5 5 4 5 6 5 5 5 5 4 5 5 3 2 4 6 7 7 6 8 7
5 4 7 6 7 8 6 9 9 8 8 8 8 9 7 5 5 6 6 6 6 6 5 4 4 5 5 5 5 5 5 5 5 5 5 5 5 6 6 5 5 5 5 5 5 5 6 6 7 7 6 4 4 4 4 4 6 6 4 6 7 8
12 11 7 4 6 8 9 10 8 7 7 7 9 10 8 7 6 5 6 7 7 7 7 7 6 6 6 5 5 5 5 5 5 4 5 5 5 5 6 6 6 6 5 5 4 4 5 5 5 4 4 5 4 5 3 5 6 6 7 8 7 9
7 9 4 8 7 8 6 2 6 5 6 6 8 6 5 6 7 6 5 6 6 5 6 6 6 6 4 6 5 4 5 5 4 5 4 4 5 5 5 5 5 5 5 4 4 4 4 4 4 4 4 5 5 3 3 5 6 6 7 8 9 9
3 5 3 7 2 0 4 6 8 7 6 4 2 2 3 4 4 5 6 6 6 5 5 5 4 4 5 5 5 5 5 5 5 5 5 6 5 5 5 5 4 4 4 3 4 4 4 4 4 5 5 3 4 4 4 5 5 6 6 7 7 7
6 6 6 3 9 10 5 5 4 5 5 5 5 4 5 3 1 1 4 4 5 4 3 3 4 3 5 4 6 6 6 6 6 5 5 6 6 5 5 5 5 5 5 4 5 5 4 5 4 4 4 5 5 5 4 3 3 5 5 5 6 7
Wind_Direction
110 110 102 92 112 134 145 141 139 141 141 140 139 136 137 140 140 147 147 144 138 131 132 137 135 136 135 129 127 130 132 130 129 130 129 122 118 115 113 104 99 92 84 78 61 46 49 57 50 62 97 102 110 106 115 114 115 112 102 102 110 118
107 102 100 97 94 130 144 141 138 142 145 145 142 140 141 141 142 140 144 137 127 129 124 126 134 133 127 137 134 136 136 132 132 137 135 129 123 121 118 116 115 114 108 96 77 29 19 57 59 60 109 117 106 107 106 111 118 116 108 108 116 120
94 86 91 91 99 118 125 112 127 132 145 148 151 142 139 141 135 140 129 123 121 117 127 131 127 137 136 139 140 141 138 142 142 144 142 135 131 128 124 127 125 123 109 107 29 19 31 57 73 72 76 86 94 92 94 97 110 124 127 130 119 119
95 90 96 98 97 95 109 113 124 134 141 149 142 136 137 139 143 141 138 133 130 130 130 137 146 145 143 139 143 144 144 148 152 151 147 137 134 132 129 128 119 102 73 31 11 15 29 60 96 94 91 91 97 108 116 121 126 127 133 129 125 124
98 114 113 112 118 125 126 135 142 148 146 141 132 137 144 148 147 147 144 137 138 133 139 151 143 134 130 139 138 142 142 138 141 148 135 122 117 123 109 105 55 52 35 28 353 319 5 78 47 91 100 112 117 123 120 125 122 116 102 114 124 129
129 138 139 145 154 161 153 153 158 154 142 135 142 150 154 155 148 149 145 150 141 132 144 152 126 131 137 138 142 147 143 146 148 160 134 138 132 121 142 132 130 127 5 350 302 300 316 111 109 87 99 107 118 117 122 122 115 105 91 107 127 130
148 148 147 151 153 151 153 157 158 152 145 143 139 142 141 147 151 151 149 158 151 146 147 153 142 141 145 149 153 160 159 159 161 168 161 145 160 158 162 150 147 162 187 214 269 319 292 188 101 98 105 114 119 124 125 121 117 112 103 102 116 124
156 151 152 157 150 152 158 157 156 155 142 142 133 134 144 154 149 151 147 162 159 151 148 154 152 148 153 154 167 171 158 156 162 178 169 156 160 166 151 129 122 173 184 216 54 254 222 132 92 111 109 120 125 120 119 120 123 113 107 105 115 126
157 149 142 144 134 101 142 148 134 137 140 144 108 136 147 142 147 148 158 159 151 152 159 159 156 155 152 167 167 165 160 170 176 176 164 183 168 162 168 149 165 191 214 83 165 149 137 94 97 98 115 124 125 125 126 131 122 111 108 110 113 132
146 127 116 96 89 103 152 151 123 122 127 120 108 116 135 131 144 156 155 159 156 160 167 161 158 156 162 167 158 155 161 178 188 180 174 180 190 162 176 171 153 204 44 102 88 141 101 104 87 91 107 122 128 133 139 137 125 122 124 116 118 131
118 115 112 122 110 80 42 54 72 63 95 111 145 138 117 80 255 180 147 150 161 166 162 156 158 166 163 150 152 143 156 155 180 197 190 191 177 174 169 182 171 137 145 100 86 57 95 95 93 102 112 120 131 133 133 129 124 124 120 118 116 119
119 112 118 112 101 111 93 55 43 71 79 132 204 173 145 139 143 311 276 152 146 153 150 150 157 160 154 149 143 140 143 153 173 178 187 187 184 170 175 96 102 119 114 109 103 76 65 89 92 108 126 116 126 129 130 130 128 122 116 112 111 102
119 119 114 106 75 36 80 93 93 115 139 104 242 208 148 148 149 178 233 229 146 134 141 151 161 158 156 145 143 143 150 167 163 166 155 148 191 161 99 109 91 100 97 92 83 79 80 82 95 106 108 106 114 119 124 124 123 118 115 109 105 107
141 130 107 123 134 94 83 81 93 89 309 132 181 293 28 59 151 170 180 170 136 127 128 140 150 151 145 140 148 153 158 164 167 165 144 136 136 138 124 117 125 101 85 89 89 97 108 97 93 93 97 102 96 109 119 116 112 111 111 108 111 107
158 157 162 160 144 127 110 105 101 151 297 42 63 81 116 163 266 198 162 137 130 133 134 140 147 148 148 146 152 156 157 155 148 138 130 145 111 90 113 124 113 100 79 80 90 78 101 104 104 100 95 89 99 107 105 109 105 110 113 115 108 115
170 181 168 152 116 114 121 137 198 163 108 108 169 154 182 183 219 239 162 139 144 143 146 150 150 150 145 154 155 152 157 148 151 125 116 88 81 112 145 127 105 129 107 94 100 88 85 105 97 96 97 99 107 112 113 110 117 112 111 108 103 102
175 184 138 98 98 118 167 185 174 182 175 167 168 161 190 181 193 201 171 149 158 153 151 153 156 160 150 152 150 142 155 143 124 110 107 93 107 152 152 116 128 128 123 125 111 102 85 94 104 102 112 117 114 112 111 119 123 124 114 108 103 102
165 121 95 109 114 142 179 184 178 194 203 172 169 173 172 167 188 200 164 161 163 160 152 150 157 160 145 147 146 140 144 116 114 125 110 105 126 159 132 118 123 121 129 119 93 65 27 89 85 88 82 92 100 93 96 100 107 115 120 123 115 115
129 115 104 114 137 172 179 146 188 201 207 167 166 167 165 173 179 182 169 160 157 158 153 152 156 153 143 141 141 137 129 133 130 127 110 112 124 131 116 116 124 108 81 112 140 127 137 34 91 84 76 72 85 83 80 77 73 82 102 119 135 127
139 128 126 134 153 155 158 172 183 221 214 180 168 163 177 189 180 175 162 150 142 147 158 152 150 149 145 139 137 136 133 138 135 128 121 120 129 140 141 128 121 120 122 112 115 103 117 113 84 76 74 67 69 85 70 62 62 47 100 98 104 111
149 141 142 150 163 165 174 185 179 208 232 146 164 168 175 187 179 158 159 158 152 158 162 157 152 148 150 144 139 139 131 129 129 129 131 135 137 136 138 129 117 125 131 133 122 126 127 124 113 76 63 74 65 63 97 106 108 130 98 104 116 125
148 145 153 154 164 182 194 190 177 181 176 175 168 173 171 168 172 173 166 166 159 160 164 162 158 155 152 150 147 142 137 140 135 135 134 133 132 131 131 126 128 113 117 149 149 155 150 131 107 148 134 116 76 66 72 73 80 61 75 85 116 135
157 151 161 161 158 176 197 212 193 126 150 138 141 120 100 149 173 173 167 163 164 166 165 162 161 157 154 158 146 140 148 144 140 140 131 130 131 129 140 141 143 138 135 228 117 134 171 169 133 128 106 98 138 116 83 76 57 69 87 116 135 145
159 156 162 165 162 182 200 202 62 86 104 111 147 134 121 131 155 157 180 172 163 165 167 163 165 158 152 154 147 150 149 149 149 157 149 146 143 142 140 139 138 142 144 145 138 148 205 254 158 140 140 177 135 81 128 216 132 51 97 134 144 127
162 163 166 165 160 163 184 158 85 65 103 82 86 118 142 164 164 179 185 194 166 191 184 160 164 161 158 154 150 150 154 153 154 164 157 149 155 157 153 153 147 148 167 156 154 147 204 228 209 238 133 124 97 149 214 143 113 47 83 126 128 148
167 163 165 165 157 157 172 163 153 167 161 169 158 159 187 182 173 178 192 177 164 178 172 160 158 157 157 152 151 153 154 150 157 161 167 153 142 135 145 152 163 164 173 190 149 157 190 227 217 226 238 138 160 170 158 150 155 148 153 72 161 92
183 168 164 163 160 159 166 174 174 187 196 192 186 189 159 165 172 156 135 169 169 177 162 160 156 155 157 152 144 148 155 154 157 164 157 140 150 159 161 168 165 173 183 162 136 166 179 191 203 268 250 306 127 120 144 147 182 116 139 141 123 122
193 176 167 156 161 164 168 175 176 181 174 214 203 185 158 134 119 136 150 165 168 179 173 162 150 145 149 151 149 154 158 153 155 168 165 161 162 167 164 172 175 175 173 164 171 165 168 168 180 216 38 37 52 110 139 87 131 156 135 147 147 75
180 182 161 158 156 161 165 165 147 97 91 338 326 74 98 112 126 137 133 145 164 160 155 137 127 147 148 152 158 158 158 155 154 170 177 170 168 161 173 165 165 154 166 169 174 163 150 172 177 183 117 24 81 122 93 81 124 106 140 145 101 149
173 174 159 156 151 147 112 75 90 112 162 168 325 313 146 143 142 144 145 147 138 149 154 127 146 191 147 162 157 158 160 165 169 168 171 178 168 164 166 158 161 159 156 157 158 155 164 167 177 170 157 152 136 113 89 90 79 102 49 39 158 159
174 134 152 141 142 105 96 127 164 160 164 173 214 236 184 150 141 143 147 135 155 151 150 154 157 189 167 163 157 162 165 168 163 166 164 155 168 163 163 152 150 144 151 152 161 159 151 156 160 163 168 165 166 175 174 167 171 169 151 137 110 131
7 4 328 157 107 105 127 143 184 174 173 175 176 201 213 182 159 157 148 148 145 145 158 170 170 171 186 171 162 170 166 156 163 162 166 162 156 149 147 141 143 148 155 152 145 150 154 154 161 167 177 180 182 165 123 144 167 159 153 158 150 149
319 241 236 245 121 109 169 171 186 172 174 177 183 179 182 202 178 160 156 150 158 170 172 172 182 181 198 176 166 166 166 162 172 169 158 154 152 143 144 145 146 148 152 157 160 155 156 171 166 167 187 193 175 179 189 156 146 152 136 136 143 141
210 220 218 200 108 158 189 188 171 172 172 168 182 185 174 173 178 174 166 169 174 176 177 183 178 192 188 171 177 180 172 172 175 163 160 157 143 144 145 150 152 153 163 169 147 153 160 161 172 174 155 171 194 197 186 160 153 142 147 140 150 152
195 220 213 101 137 190 191 143 175 171 167 177 180 175 166 165 162 168 176 176 183 176 177 183 181 191 174 173 170 159 171 165 162 166 162 160 149 144 145 141 154 161 154 152 153 146 139 149 171 163 173 180 188 188 178 169 152 165 160 164 157 162
278 330 58 117 95 243 242 202 184 166 168 159 136 144 124 138 154 165 174 180 187 184 184 170 178 167 173 157 149 154 151 151 156 165 170 156 149 144 144 138 144 147 154 150 144 153 151 149 172 180 176 167 157 192 178 169 165 164 173 163 158 156
36 60 84 204 195 197 188 204 177 149 138 136 164 187 166 132 114 155 178 188 181 190 154 154 154 152 141 140 144 146 139 138 138 140 137 147 149 148 142 140 149 153 147 147 144 161 149 153 175 168 154 171 176 175 186 173 153 157 158 157 159 159